Location: Unspecified
(0.0000°N, 0.0000°E)
Time: 06:26:57
(UTC+00:00)

Vanguard 2 Rocket - Pass Details

Date: 06 October 2023
Orbit: 552 x 3312 km, 32.9° (Epoch: 06 December)

Event Time Altitude Azimuth Distance (km) Brightness Sun altitude
Rises 19:21:34 0° 276° (W) 6,441 12.6 -23.3°
Reaches altitude 10° 19:27:56 10° 263° (W) 4,899 11.7 -24.8°
Maximum altitude 19:36:38 21° 220° (SW) 3,243 10.1 -27.0°
Drops below altitude 10° 19:42:49 10° 175° (S) 3,311 9.8 -28.5°
Enters shadow 19:45:28 - 160° (SSE) 3,764 9.9 -29.2°
Sets 19:46:04 0° 157° (SSE) 3,896 - -29.4°
